Location: Newark
(3.0500°N, 36.0167°E)
Time: 20:16:54
(UTC+00:00)

A-11 Canister half - Pass Details

Date: 25 August 2019
Orbit: 1527 x 1682 km, 47.3° (Epoch: 22 September)

Event Time Altitude Azimuth Distance (km) Brightness Sun altitude
Rises 03:16:53 0° 180° (S) 4,690 11.4 -4.7°
Reaches altitude 10° 03:24:21 10° 141° (SE) 3,739 11.4 -2.8°
Maximum altitude 03:25:39 10° 133° (SE) 3,720 11.6 -2.5°
Drops below altitude 10° 03:26:57 10° 125° (SE) 3,753 11.8 -2.2°
Sets 03:34:27 0° 87° (E) 4,783 14.2 -0.4°
